Weather History for Cap-Skirring, Senegal

Change the Weather History Date:

Thursday, July 19, 2012

  Actual Average Record
Temperature  
Mean Temperature 84 °F -  
Max Temperature 89 °F - - ()
Min Temperature 78 °F - - ()
Cooling Degree Days 18    
Growing Degree Days 34 (Base 50)    
Moisture  
Dew Point 76 °F    
Average Humidity 80    
Maximum Humidity 89    
Minimum Humidity 68    
Precipitation  
Precipitation 0.00 in - - ()
Sea Level Pressure  
Sea Level Pressure 29.94 in    
Wind  
Wind Speed 6 mph ()    
Max Wind Speed 9 mph    
Max Gust Speed -    
Visibility 6.3 miles    
Events Thunderstorm    
T = Trace of Precipitation, MM = Missing Value Source: Averaged Metar Reports

Daily Weather History Graph

Daily Weather History Graph

Search for Another Location

Airport:

Trip Planner

Search our weather history database for the weather conditions in past years. The results will help you decide how hot, cold, wet, or windy it might be!

Date:

Astronomy

Jul. 19, 2012 Rise Set
Actual Time 6:50 AM GMT 7:36 PM GMT
Civil Twilight 6:27 AM GMT 7:58 PM GMT
Nautical Twilight 6:00 AM GMT 8:25 PM GMT
Astronomical Twilight 5:33 AM GMT 8:52 PM GMT
Moon 7:00 AM GMT (7/19) 7:53 PM GMT (7/19)
Length of Visible Light 13h 31m
Length of Day
12h 45m
Waxing Crescent, 0% of the Moon is Illuminated
Jul 19
Waxing Crescent
Jul 26
First Quarter
Aug 2
Full
Aug 9
Last Quarter
Aug 17
New

Hourly Weather History & Observations

Time (GMT) Temp. Heat Index Dew Point Humidity Pressure Visibility Wind Dir Wind Speed Gust Speed Precip Events Conditions
12:00 AM 81 °F - 76 °F 82% 30.00 in 6 mi West 6.9 mph - -   Partly Cloudy
12:00 AM 80.6 °F 87.1 °F 77.0 °F 89% 29.98 in 6.2 mi West 6.9 mph - N/A   Scattered Clouds
3:00 AM 80.6 °F 86.2 °F 75.2 °F 84% 29.95 in 6.2 mi West 6.9 mph - N/A   Scattered Clouds
4:00 AM 80.6 °F 86.2 °F 75.2 °F 84% 29.95 in 6.2 mi West 6.9 mph - N/A   Scattered Clouds
6:00 AM 81 °F - 76 °F 79% 29.97 in 6 mi West 6.9 mph - -   Partly Cloudy
6:00 AM 80.6 °F 86.2 °F 75.2 °F 84% 29.95 in 6.2 mi West 6.9 mph - N/A   Scattered Clouds
7:00 AM 80.6 °F 86.2 °F 75.2 °F 84% 29.95 in 6.2 mi West 6.9 mph - N/A   Scattered Clouds
8:00 AM 82.4 °F 89.5 °F 75.2 °F 79% 29.95 in 6.2 mi West 6.9 mph - N/A   Mostly Cloudy
9:00 AM 82.4 °F 89.5 °F 75.2 °F 79% 29.95 in 6.2 mi West 9.2 mph - N/A   Scattered Clouds
10:00 AM 84.2 °F 94.1 °F 77.0 °F 79% 29.95 in 6.2 mi West 9.2 mph - N/A   Scattered Clouds
11:00 AM 86.0 °F 96.9 °F 77.0 °F 74% 29.98 in 6.2 mi West 6.9 mph - N/A   Scattered Clouds
12:00 PM 86 °F - 77 °F 68% 29.98 in 7 mi West 6.9 mph - -   Partly Cloudy
12:00 PM 86.0 °F 96.9 °F 77.0 °F 74% 29.98 in 6.2 mi West 6.9 mph - N/A   Scattered Clouds
3:00 PM 86.0 °F 96.9 °F 77.0 °F 74% 29.92 in 6.2 mi West 6.9 mph - N/A   Scattered Clouds
4:00 PM 84.2 °F 94.1 °F 77.0 °F 79% 29.89 in 6.2 mi WSW 9.2 mph - N/A   Mostly Cloudy
5:00 PM 86.0 °F 96.9 °F 77.0 °F 74% 29.89 in 6.2 mi West 6.9 mph - N/A   Mostly Cloudy
6:00 PM 85 °F - 77 °F 71% 29.89 in 7 mi West 6.9 mph - -   Partly Cloudy
6:00 PM 84.2 °F 94.1 °F 77.0 °F 79% 29.89 in 6.2 mi West 6.9 mph - N/A   Mostly Cloudy
7:00 PM 82.4 °F 90.9 °F 77.0 °F 84% 29.86 in 6.2 mi West 6.9 mph - N/A   Mostly Cloudy
9:00 PM 82.4 °F 90.9 °F 77.0 °F 84% 29.89 in 6.2 mi West 6.9 mph - N/A   Mostly Cloudy
10:00 PM 82.4 °F 90.9 °F 77.0 °F 84% 29.89 in 6.2 mi West 6.9 mph - N/A Thunderstorm Thunderstorm
11:00 PM 82.4 °F 90.9 °F 77.0 °F 84% 29.92 in 6.2 mi West 4.6 mph - N/A Thunderstorm Thunderstorm